Regional Weather Roundup
Issued by NWS

Home | Current Version | Previous Version | Text Only | Print | Product List | Glossary Off
Versions: 1 2 3 4 5 6 7 8 9 10 11 12 13 14 15 16 17 18 19 20 21 22 23 24 25 26 27

000
ASUS45 KCYS 230710
RWRWY

WYOMING REGIONAL WEATHER ROUNDUP
NATIONAL WEATHER SERVICE CHEYENNE WY
1200 AM MST MON JAN 23 2017

NOTE:  "FAIR" INDICATES FEW OR NO CLOUDS BELOW 12,000 FEET
WITH NO SIGNIFICANT WEATHER AND/OR OBSTRUCTIONS TO VISIBILITY.

WYZ001-230800-
YELLOWSTONE NATIONAL PARK

CITY           SKY/WX    TMP DP  RH WIND       PRES   REMARKS
LK YELLOWSTONE   N/A     15  14  95 CALM      29.66F
W YELLOWSTONE  NOT AVBL

$$
WYZ002>013-054>058-071-098>099-230800-
NORTHERN WYOMING

CITY           SKY/WX    TMP DP  RH WIND       PRES   REMARKS
JACKSON        CLOUDY    21  19  93 S6        29.69S WCI  14
CODY           FAIR      17  12  80 NE3       29.64F
GREYBULL       FAIR      14   9  80 NW7       29.68F WCI   4
WORLAND        CLOUDY    29  24  82 SE10      29.65F WCI  20
SHERIDAN       FAIR      19  15  84 SE9       29.65F WCI   8
BUFFALO        FAIR      26  13  57 S3        29.63S
GILLETTE       FAIR      27  20  75 SE10      29.66F WCI  17
HULETT         FAIR      27  18  69 CALM      29.70F
NEWCASTLE      FAIR      23  14  68 SE9       29.74F WCI  13

$$
WYZ014>020-022>026-101>103-230800-
CENTRAL WYOMING

CITY           SKY/WX    TMP DP  RH WIND       PRES   REMARKS
BIG PINEY      LGT SNOW  15  13  91 N5        29.70F FOG     WCI   8
PINEDALE       LGT SNOW  18  18 100 CALM      29.71F
DUBOIS         NOT AVBL
LANDER         FAIR      20  13  74 S3        29.66F
RIVERTON       FAIR      17  13  84 NW9       29.67F WCI   6
CASPER         LGT SNOW  29  26  89 SW23G38   29.69F FOG     WCI  15
DOUGLAS        MOCLDY    30  16  56 CALM      29.72F

$$
WYZ021-027>030-104>119-230800-
SOUTHERN WYOMING

CITY           SKY/WX    TMP DP  RH WIND       PRES   REMARKS
EVANSTON       HVY SNOW  19  15  84 MISG      29.65F VSB 1/4
ROCK SPRINGS   CLOUDY    25  20  81 S8        29.70F WCI  16
RAWLINS        CLOUDY    28  19  69 S17G23    29.70F WCI  16
LARAMIE        CLOUDY    22  17  81 SE12      29.72F WCI  10
CHEYENNE       CLOUDY    29  13  51 SW12      29.76F WCI  19
TORRINGTON     FAIR      25  17  72 SW3       29.77F

$$




USA.gov is the U.S. government's official web portal to all federal, state and local government web resources and services.